Time,TemperatureF,DewpointF,PressureIn,WindDirection,WindDirectionDegrees,WindSpeedMPH,WindSpeedGustMPH,Humidity,HourlyPrecipIn,Conditions,Clouds,dailyrainin,SoftwareType,DateUTC
2013-02-25 00:01:00,44.1,42.8,30.18,South,184,13.0,16.0,95,0.00,,,0.01,Wunderground v.1.15,2013-02-25 08:01:00,
2013-02-25 00:06:00,44.0,42.7,30.17,SSW,198,12.0,17.0,95,0.00,,,0.00,Wunderground v.1.15,2013-02-25 08:06:00,
2013-02-25 00:12:00,44.0,42.7,30.17,SSW,196,12.0,21.0,95,0.00,,,0.00,Wunderground v.1.15,2013-02-25 08:12:00,
2013-02-25 00:17:00,44.0,42.7,30.17,SSW,205,12.0,21.0,95,0.00,,,0.00,Wunderground v.1.15,2013-02-25 08:17:00,
2013-02-25 00:23:00,44.1,42.8,30.17,SSW,196,11.0,17.0,95,0.00,,,0.01,Wunderground v.1.15,2013-02-25 08:23:00,
2013-02-25 00:28:00,44.1,42.8,30.17,SSW,194,11.0,18.0,95,0.08,,,0.02,Wunderground v.1.15,2013-02-25 08:28:00,
2013-02-25 00:34:00,44.2,42.9,30.17,South,170,12.0,16.0,95,0.08,,,0.02,Wunderground v.1.15,2013-02-25 08:34:00,
2013-02-25 00:39:00,44.2,42.9,30.17,South,184,13.0,16.0,95,0.06,,,0.03,Wunderground v.1.15,2013-02-25 08:39:00,
2013-02-25 00:44:00,44.2,43.1,30.17,SSW,205,13.0,16.0,96,0.06,,,0.03,Wunderground v.1.15,2013-02-25 08:44:00,
2013-02-25 00:50:00,44.3,43.2,30.16,South,188,13.0,14.0,96,0.07,,,0.04,Wunderground v.1.15,2013-02-25 08:50:00,
2013-02-25 00:56:00,44.3,43.2,30.17,SSE,165,14.0,18.0,96,0.09,,,0.05,Wunderground v.1.15,2013-02-25 08:56:00,
2013-02-25 01:01:00,44.3,43.2,30.17,SSW,202,14.0,22.0,96,0.11,,,0.06,Wunderground v.1.15,2013-02-25 09:01:00,
2013-02-25 01:06:00,44.3,43.2,30.16,South,179,14.0,22.0,96,0.10,,,0.07,Wunderground v.1.15,2013-02-25 09:06:00,
2013-02-25 01:11:00,44.3,43.2,30.17,SSW,195,15.0,22.0,96,0.12,,,0.08,Wunderground v.1.15,2013-02-25 09:11:00,
2013-02-25 01:17:00,44.3,43.2,30.17,SSW,196,15.0,22.0,96,0.27,,,0.11,Wunderground v.1.15,2013-02-25 09:17:00,
2013-02-25 01:23:00,44.3,43.2,30.19,SSW,206,13.0,22.0,96,0.43,,,0.14,Wunderground v.1.15,2013-02-25 09:23:00,
2013-02-25 01:28:00,44.3,43.2,30.21,SW,228,13.0,22.0,96,0.81,,,0.18,Wunderground v.1.15,2013-02-25 09:28:00,
2013-02-25 01:33:00,44.3,43.2,30.21,SSW,202,16.0,22.0,96,0.30,,,0.22,Wunderground v.1.15,2013-02-25 09:33:00,
2013-02-25 01:39:00,44.3,43.2,30.20,SW,220,16.0,22.0,96,0.17,,,0.23,Wunderground v.1.15,2013-02-25 09:39:00,
2013-02-25 01:45:00,44.7,43.6,30.21,SW,227,11.0,22.0,96,0.07,,,0.23,Wunderground v.1.15,2013-02-25 09:45:00,
2013-02-25 01:50:00,45.1,44.0,30.21,SW,229,11.0,22.0,96,0.05,,,0.23,Wunderground v.1.15,2013-02-25 09:50:00,
2013-02-25 01:56:00,45.2,44.1,30.21,SW,230,12.0,22.0,96,0.00,,,0.23,Wunderground v.1.15,2013-02-25 09:56:00,
2013-02-25 02:02:00,45.2,44.1,30.22,SW,235,12.0,22.0,96,0.00,,,0.23,Wunderground v.1.15,2013-02-25 10:02:00,
2013-02-25 02:08:00,45.3,44.2,30.22,NNW,328,10.0,22.0,96,0.00,,,0.23,Wunderground v.1.15,2013-02-25 10:08:00,
2013-02-25 02:13:00,44.9,43.6,30.22,WNW,294,10.0,22.0,95,0.00,,,0.23,Wunderground v.1.15,2013-02-25 10:13:00,
2013-02-25 02:18:00,45.0,43.7,30.22,SSW,205,9.0,22.0,95,0.00,,,0.23,Wunderground v.1.15,2013-02-25 10:18:00,
2013-02-25 02:24:00,45.5,43.6,30.23,West,279,10.0,22.0,93,0.00,,,0.23,Wunderground v.1.15,2013-02-25 10:24:00,
2013-02-25 02:29:00,45.7,43.5,30.23,WSW,250,10.0,22.0,92,0.00,,,0.23,Wunderground v.1.15,2013-02-25 10:29:00,
2013-02-25 02:34:00,45.8,43.6,30.23,WNW,284,10.0,22.0,92,0.00,,,0.23,Wunderground v.1.15,2013-02-25 10:34:00,
2013-02-25 02:40:00,45.9,43.4,30.23,WNW,300,10.0,22.0,91,0.00,,,0.23,Wunderground v.1.15,2013-02-25 10:40:00,
2013-02-25 02:46:00,45.6,43.1,30.24,WNW,297,11.0,22.0,91,0.00,,,0.23,Wunderground v.1.15,2013-02-25 10:46:00,
2013-02-25 02:52:00,45.6,42.8,30.23,WNW,288,11.0,22.0,90,0.00,,,0.23,Wunderground v.1.15,2013-02-25 10:52:00,
2013-02-25 02:57:00,45.4,42.3,30.24,WSW,258,12.0,22.0,89,0.00,,,0.24,Wunderground v.1.15,2013-02-25 10:57:00,
2013-02-25 03:03:00,45.5,41.6,30.24,WSW,250,12.0,22.0,86,0.00,,,0.24,Wunderground v.1.15,2013-02-25 11:03:00,
2013-02-25 03:09:00,45.4,41.5,30.25,WNW,284,11.0,22.0,86,0.00,,,0.24,Wunderground v.1.15,2013-02-25 11:09:00,
2013-02-25 03:14:00,45.5,41.6,30.25,NNW,329,10.0,22.0,86,0.00,,,0.24,Wunderground v.1.15,2013-02-25 11:14:00,
2013-02-25 03:20:00,45.4,41.2,30.25,WNW,294,9.0,22.0,85,0.00,,,0.24,Wunderground v.1.15,2013-02-25 11:20:00,
2013-02-25 03:25:00,45.5,41.3,30.25,NW,309,10.0,22.0,85,0.00,,,0.24,Wunderground v.1.15,2013-02-25 11:25:00,
2013-02-25 03:31:00,45.6,41.7,30.25,NW,321,10.0,11.0,86,0.00,,,0.24,Wunderground v.1.15,2013-02-25 11:31:00,
2013-02-25 03:36:00,45.4,41.2,30.26,NW,311,10.0,22.0,85,0.00,,,0.24,Wunderground v.1.15,2013-02-25 11:36:00,
2013-02-25 03:41:00,45.2,41.0,30.26,WNW,300,12.0,22.0,85,0.00,,,0.24,Wunderground v.1.15,2013-02-25 11:41:00,
2013-02-25 03:47:00,45.0,40.5,30.26,NW,307,13.0,22.0,84,0.00,,,0.24,Wunderground v.1.15,2013-02-25 11:47:00,
2013-02-25 03:52:00,45.0,40.5,30.26,NW,317,13.0,22.0,84,0.00,,,0.24,Wunderground v.1.15,2013-02-25 11:52:00,
2013-02-25 03:58:00,45.1,40.6,30.26,NW,313,12.0,22.0,84,0.00,,,0.24,Wunderground v.1.15,2013-02-25 11:58:00,
2013-02-25 04:03:00,45.0,39.8,30.26,NW,323,11.0,22.0,82,0.00,,,0.24,Wunderground v.1.15,2013-02-25 12:03:00,
2013-02-25 04:09:00,45.2,40.3,30.27,NW,311,10.0,22.0,83,0.00,,,0.24,Wunderground v.1.15,2013-02-25 12:09:00,
2013-02-25 04:14:00,45.1,40.2,30.27,NW,309,9.0,22.0,83,0.00,,,0.24,Wunderground v.1.15,2013-02-25 12:14:00,
2013-02-25 04:19:00,45.0,40.1,30.27,NW,311,8.0,22.0,83,0.00,,,0.24,Wunderground v.1.15,2013-02-25 12:19:00,
2013-02-25 04:24:00,45.1,40.2,30.27,NW,313,8.0,22.0,83,0.00,,,0.24,Wunderground v.1.15,2013-02-25 12:24:00,
2013-02-25 04:29:00,45.1,40.2,30.28,NW,309,6.0,22.0,83,0.00,,,0.24,Wunderground v.1.15,2013-02-25 12:29:00,
2013-02-25 04:35:00,45.2,40.3,30.28,NW,307,6.0,22.0,83,0.00,,,0.24,Wunderground v.1.15,2013-02-25 12:35:00,
2013-02-25 04:40:00,45.2,40.3,30.28,NW,318,6.0,22.0,83,0.00,,,0.24,Wunderground v.1.15,2013-02-25 12:40:00,
2013-02-25 04:45:00,45.1,39.9,30.28,WNW,291,8.0,22.0,82,0.00,,,0.24,Wunderground v.1.15,2013-02-25 12:45:00,
2013-02-25 04:51:00,45.2,39.7,30.28,NW,307,10.0,22.0,81,0.00,,,0.24,Wunderground v.1.15,2013-02-25 12:51:00,
2013-02-25 04:56:00,45.2,39.7,30.28,NW,310,10.0,22.0,81,0.00,,,0.24,Wunderground v.1.15,2013-02-25 12:56:00,
2013-02-25 05:02:00,45.1,39.9,30.28,NW,305,9.0,22.0,82,0.00,,,0.24,Wunderground v.1.15,2013-02-25 13:02:00,
2013-02-25 05:07:00,45.1,39.9,30.28,NW,311,9.0,22.0,82,0.00,,,0.24,Wunderground v.1.15,2013-02-25 13:07:00,
2013-02-25 05:12:00,44.7,39.9,30.28,NW,321,10.0,22.0,83,0.00,,,0.24,Wunderground v.1.15,2013-02-25 13:12:00,
2013-02-25 05:18:00,44.1,39.6,30.28,NW,315,10.0,22.0,84,0.00,,,0.24,Wunderground v.1.15,2013-02-25 13:18:00,
2013-02-25 05:23:00,43.8,39.3,30.29,NNW,329,9.0,22.0,84,0.00,,,0.24,Wunderground v.1.15,2013-02-25 13:23:00,
2013-02-25 05:29:00,43.7,39.5,30.29,NW,318,6.0,22.0,85,0.00,,,0.24,Wunderground v.1.15,2013-02-25 13:29:00,
2013-02-25 05:34:00,44.0,40.1,30.29,NW,324,5.0,22.0,86,0.00,,,0.24,Wunderground v.1.15,2013-02-25 13:34:00,
2013-02-25 05:40:00,44.1,40.2,30.29,NW,304,5.0,22.0,86,0.00,,,0.24,Wunderground v.1.15,2013-02-25 13:40:00,
2013-02-25 05:46:00,44.4,40.2,30.29,NW,311,6.0,22.0,85,0.00,,,0.24,Wunderground v.1.15,2013-02-25 13:46:00,
2013-02-25 05:52:00,44.5,39.7,30.29,NW,306,7.0,22.0,83,0.00,,,0.24,Wunderground v.1.15,2013-02-25 13:52:00,
2013-02-25 05:57:00,44.7,40.2,30.30,West,267,7.0,22.0,84,0.00,,,0.24,Wunderground v.1.15,2013-02-25 13:57:00,
2013-02-25 06:03:00,44.7,39.5,30.30,NW,306,7.0,22.0,82,0.00,,,0.24,Wunderground v.1.15,2013-02-25 14:03:00,
2013-02-25 06:08:00,44.6,39.4,30.30,West,263,7.0,22.0,82,0.00,,,0.24,Wunderground v.1.15,2013-02-25 14:08:00,
2013-02-25 06:14:00,44.5,39.3,30.30,NW,306,7.0,22.0,82,0.00,,,0.24,Wunderground v.1.15,2013-02-25 14:14:00,
2013-02-25 06:20:00,44.3,39.5,30.31,WNW,297,8.0,8.0,83,0.00,,,0.24,Wunderground v.1.15,2013-02-25 14:20:00,
2013-02-25 06:25:00,44.3,39.5,30.31,NNW,329,8.0,22.0,83,0.00,,,0.24,Wunderground v.1.15,2013-02-25 14:25:00,
2013-02-25 06:30:00,44.5,39.0,30.31,NW,321,9.0,9.0,81,0.00,,,0.24,Wunderground v.1.15,2013-02-25 14:30:00,
2013-02-25 06:36:00,44.4,38.6,30.31,WNW,298,8.0,22.0,80,0.00,,,0.24,Wunderground v.1.15,2013-02-25 14:36:00,
2013-02-25 06:41:00,44.6,38.2,30.32,WNW,294,9.0,22.0,78,0.00,,,0.24,Wunderground v.1.15,2013-02-25 14:41:00,
2013-02-25 06:47:00,43.8,38.7,30.31,NW,320,13.0,23.0,82,0.00,,,0.24,Wunderground v.1.15,2013-02-25 14:47:00,
2013-02-25 06:52:00,43.3,38.5,30.32,NW,308,16.0,22.0,83,0.00,,,0.24,Wunderground v.1.15,2013-02-25 14:52:00,
2013-02-25 06:57:00,43.1,37.0,30.32,NW,319,15.0,22.0,79,0.00,,,0.24,Wunderground v.1.15,2013-02-25 14:57:00,
2013-02-25 07:03:00,43.1,37.3,30.32,NW,317,12.0,22.0,80,0.00,,,0.24,Wunderground v.1.15,2013-02-25 15:03:00,
2013-02-25 07:08:00,43.1,36.4,30.33,NNW,347,10.0,22.0,77,0.00,,,0.24,Wunderground v.1.15,2013-02-25 15:08:00,
2013-02-25 07:14:00,43.2,36.1,30.33,NW,318,7.0,22.0,76,0.00,,,0.24,Wunderground v.1.15,2013-02-25 15:14:00,
2013-02-25 07:20:00,43.3,35.9,30.33,WNW,298,5.0,22.0,75,0.00,,,0.24,Wunderground v.1.15,2013-02-25 15:20:00,
2013-02-25 07:25:00,43.5,36.8,30.33,NW,304,5.0,22.0,77,0.00,,,0.24,Wunderground v.1.15,2013-02-25 15:25:00,
2013-02-25 07:30:00,44.0,37.6,30.33,NW,317,7.0,22.0,78,0.00,,,0.24,Wunderground v.1.15,2013-02-25 15:30:00,
2013-02-25 07:36:00,44.1,37.3,30.33,WNW,293,9.0,22.0,77,0.00,,,0.24,Wunderground v.1.15,2013-02-25 15:36:00,
2013-02-25 07:42:00,44.3,37.5,30.33,WNW,299,8.0,22.0,77,0.00,,,0.24,Wunderground v.1.15,2013-02-25 15:42:00,
2013-02-25 07:48:00,44.5,37.4,30.33,NW,311,7.0,22.0,76,0.00,,,0.24,Wunderground v.1.15,2013-02-25 15:48:00,
2013-02-25 07:53:00,44.5,37.1,30.33,WNW,298,7.0,22.0,75,0.00,,,0.24,Wunderground v.1.15,2013-02-25 15:53:00,
2013-02-25 07:58:00,44.6,37.8,30.33,West,281,7.0,22.0,77,0.00,,,0.24,Wunderground v.1.15,2013-02-25 15:58:00,
2013-02-25 08:04:00,44.5,37.1,30.34,NW,313,8.0,22.0,75,0.00,,,0.24,Wunderground v.1.15,2013-02-25 16:04:00,
2013-02-25 08:09:00,44.3,38.2,30.34,WNW,302,9.0,22.0,79,0.00,,,0.24,Wunderground v.1.15,2013-02-25 16:09:00,
2013-02-25 08:14:00,43.7,37.9,30.34,WNW,294,11.0,22.0,80,0.00,,,0.24,Wunderground v.1.15,2013-02-25 16:14:00,
2013-02-25 08:20:00,43.5,38.1,30.34,West,281,11.0,11.0,81,0.00,,,0.24,Wunderground v.1.15,2013-02-25 16:20:00,
2013-02-25 08:26:00,43.4,37.6,30.35,WSW,248,10.0,22.0,80,0.00,,,0.24,Wunderground v.1.15,2013-02-25 16:26:00,
2013-02-25 08:31:00,43.4,37.6,30.35,NW,323,9.0,22.0,80,0.00,,,0.24,Wunderground v.1.15,2013-02-25 16:31:00,
2013-02-25 08:37:00,43.6,38.2,30.35,NNW,329,6.0,22.0,81,0.00,,,0.24,Wunderground v.1.15,2013-02-25 16:37:00,
2013-02-25 08:43:00,43.7,38.3,30.35,NNW,338,4.0,22.0,81,0.00,,,0.24,Wunderground v.1.15,2013-02-25 16:43:00,
2013-02-25 08:48:00,43.9,38.4,30.36,NNW,332,4.0,22.0,81,0.00,,,0.24,Wunderground v.1.15,2013-02-25 16:48:00,
2013-02-25 08:54:00,43.9,38.1,30.36,NNW,331,4.0,22.0,80,0.00,,,0.24,Wunderground v.1.15,2013-02-25 16:54:00,
2013-02-25 09:00:00,44.1,38.3,30.36,NNW,328,4.0,4.0,80,0.00,,,0.24,Wunderground v.1.15,2013-02-25 17:00:00,
2013-02-25 09:06:00,44.1,38.3,30.36,WNW,294,3.0,22.0,80,0.00,,,0.24,Wunderground v.1.15,2013-02-25 17:06:00,
2013-02-25 09:12:00,44.3,38.5,30.36,NW,304,4.0,22.0,80,0.00,,,0.24,Wunderground v.1.15,2013-02-25 17:12:00,
2013-02-25 09:18:00,44.9,38.8,30.36,NW,317,7.0,22.0,79,0.00,,,0.24,Wunderground v.1.15,2013-02-25 17:18:00,
2013-02-25 09:23:00,45.2,38.4,30.36,NW,316,8.0,22.0,77,0.00,,,0.24,Wunderground v.1.15,2013-02-25 17:23:00,
2013-02-25 09:29:00,45.4,38.9,30.36,NNW,338,6.0,22.0,78,0.00,,,0.24,Wunderground v.1.15,2013-02-25 17:29:00,
2013-02-25 09:35:00,45.2,39.4,30.36,NNW,336,4.0,22.0,80,0.00,,,0.24,Wunderground v.1.15,2013-02-25 17:35:00,
2013-02-25 09:40:00,45.4,39.6,30.36,NW,319,4.0,22.0,80,0.00,,,0.24,Wunderground v.1.15,2013-02-25 17:40:00,
2013-02-25 09:46:00,45.5,39.0,30.36,WNW,302,5.0,22.0,78,0.00,,,0.24,Wunderground v.1.15,2013-02-25 17:46:00,
2013-02-25 09:51:00,45.7,38.9,30.36,West,281,6.0,22.0,77,0.00,,,0.24,Wunderground v.1.15,2013-02-25 17:51:00,
2013-02-25 09:57:00,45.8,38.7,30.36,WNW,302,6.0,22.0,76,0.00,,,0.24,Wunderground v.1.15,2013-02-25 17:57:00,
2013-02-25 10:02:00,45.9,38.8,30.36,NW,311,7.0,22.0,76,0.00,,,0.24,Wunderground v.1.15,2013-02-25 18:02:00,
2013-02-25 10:08:00,45.9,38.1,30.36,WNW,294,6.0,22.0,74,0.00,,,0.24,Wunderground v.1.15,2013-02-25 18:08:00,
2013-02-25 10:13:00,46.1,38.3,30.36,NW,315,6.0,22.0,74,0.00,,,0.24,Wunderground v.1.15,2013-02-25 18:13:00,
2013-02-25 10:18:00,46.2,38.7,30.37,NW,309,6.0,22.0,75,0.00,,,0.24,Wunderground v.1.15,2013-02-25 18:18:00,
2013-02-25 10:24:00,46.4,38.6,30.37,NW,313,6.0,22.0,74,0.00,,,0.24,Wunderground v.1.15,2013-02-25 18:24:00,
2013-02-25 10:30:00,46.1,37.6,30.37,NW,320,6.0,6.0,72,0.00,,,0.24,Wunderground v.1.15,2013-02-25 18:30:00,
2013-02-25 10:35:00,46.4,38.6,30.37,NW,325,6.0,22.0,74,0.00,,,0.24,Wunderground v.1.15,2013-02-25 18:35:00,
2013-02-25 10:41:00,46.5,38.0,30.37,NW,313,5.0,22.0,72,0.00,,,0.24,Wunderground v.1.15,2013-02-25 18:41:00,
2013-02-25 10:47:00,46.7,39.2,30.37,NW,315,5.0,22.0,75,0.00,,,0.24,Wunderground v.1.15,2013-02-25 18:47:00,
2013-02-25 10:52:00,46.5,37.6,30.38,WNW,293,5.0,22.0,71,0.00,,,0.24,Wunderground v.1.15,2013-02-25 18:52:00,
2013-02-25 10:58:00,46.4,37.9,30.38,West,280,4.0,22.0,72,0.00,,,0.24,Wunderground v.1.15,2013-02-25 18:58:00,
2013-02-25 11:03:00,46.8,38.9,30.38,West,275,4.0,22.0,74,0.00,,,0.24,Wunderground v.1.15,2013-02-25 19:03:00,
2013-02-25 11:08:00,47.0,38.8,30.38,West,281,5.0,22.0,73,0.00,,,0.24,Wunderground v.1.15,2013-02-25 19:08:00,
2013-02-25 11:14:00,46.7,39.2,30.38,West,273,5.0,22.0,75,0.00,,,0.24,Wunderground v.1.15,2013-02-25 19:14:00,
2013-02-25 11:19:00,46.6,39.4,30.38,West,260,5.0,22.0,76,0.00,,,0.24,Wunderground v.1.15,2013-02-25 19:19:00,
2013-02-25 11:24:00,46.1,39.3,30.38,North,355,5.0,22.0,77,0.00,,,0.24,Wunderground v.1.15,2013-02-25 19:24:00,
2013-02-25 11:29:00,45.4,38.9,30.38,NNW,348,6.0,22.0,78,0.00,,,0.24,Wunderground v.1.15,2013-02-25 19:29:00,
2013-02-25 11:35:00,44.7,38.9,30.38,North,355,6.0,22.0,80,0.00,,,0.24,Wunderground v.1.15,2013-02-25 19:35:00,
2013-02-25 11:40:00,44.1,38.6,30.38,North,355,8.0,22.0,81,0.00,,,0.24,Wunderground v.1.15,2013-02-25 19:40:00,
2013-02-25 11:46:00,44.4,39.2,30.38,North,349,7.0,22.0,82,0.00,,,0.24,Wunderground v.1.15,2013-02-25 19:46:00,
2013-02-25 11:51:00,44.7,39.2,30.38,North,350,6.0,22.0,81,0.00,,,0.24,Wunderground v.1.15,2013-02-25 19:51:00,
2013-02-25 11:57:00,44.3,39.2,30.39,North,350,5.0,22.0,82,0.00,,,0.24,Wunderground v.1.15,2013-02-25 19:57:00,
2013-02-25 12:03:00,44.2,39.4,30.39,NNW,336,4.0,22.0,83,0.00,,,0.24,Wunderground v.1.15,2013-02-25 20:03:00,
2013-02-25 12:08:00,44.0,39.2,30.38,NNW,336,3.0,22.0,83,0.00,,,0.25,Wunderground v.1.15,2013-02-25 20:08:00,
2013-02-25 12:13:00,43.9,39.1,30.38,NNW,335,2.0,22.0,83,0.00,,,0.25,Wunderground v.1.15,2013-02-25 20:13:00,
2013-02-25 12:19:00,44.4,40.2,30.38,NNW,331,2.0,22.0,85,0.00,,,0.25,Wunderground v.1.15,2013-02-25 20:19:00,
2013-02-25 12:24:00,44.7,40.5,30.38,NW,316,3.0,22.0,85,0.00,,,0.25,Wunderground v.1.15,2013-02-25 20:24:00,
2013-02-25 12:30:00,44.6,40.1,30.38,NW,316,2.0,2.0,84,0.00,,,0.25,Wunderground v.1.15,2013-02-25 20:30:00,
2013-02-25 12:36:00,45.2,41.0,30.38,NW,316,2.0,22.0,85,0.00,,,0.25,Wunderground v.1.15,2013-02-25 20:36:00,
2013-02-25 12:41:00,45.2,40.7,30.38,NW,316,2.0,22.0,84,0.00,,,0.25,Wunderground v.1.15,2013-02-25 20:41:00,
2013-02-25 12:47:00,45.2,40.3,30.38,NW,313,2.0,22.0,83,0.00,,,0.25,Wunderground v.1.15,2013-02-25 20:47:00,
2013-02-25 12:52:00,45.4,40.5,30.38,WNW,302,2.0,22.0,83,0.00,,,0.25,Wunderground v.1.15,2013-02-25 20:52:00,
2013-02-25 12:58:00,45.8,40.9,30.39,WNW,302,3.0,22.0,83,0.00,,,0.25,Wunderground v.1.15,2013-02-25 20:58:00,
2013-02-25 13:04:00,46.2,41.3,30.39,SW,223,4.0,22.0,83,0.00,,,0.25,Wunderground v.1.15,2013-02-25 21:04:00,
2013-02-25 13:09:00,46.1,41.2,30.39,SW,223,5.0,22.0,83,0.00,,,0.25,Wunderground v.1.15,2013-02-25 21:09:00,
2013-02-25 13:15:00,46.3,41.4,30.39,SW,223,5.0,22.0,83,0.00,,,0.25,Wunderground v.1.15,2013-02-25 21:15:00,
2013-02-25 13:21:00,45.3,40.1,30.39,SW,223,4.0,22.0,82,0.00,,,0.25,Wunderground v.1.15,2013-02-25 21:21:00,
2013-02-25 13:27:00,45.0,39.8,30.39,SW,223,5.0,22.0,82,0.00,,,0.25,Wunderground v.1.15,2013-02-25 21:27:00,
2013-02-25 13:33:00,45.3,40.1,30.39,SW,226,5.0,22.0,82,0.00,,,0.25,Wunderground v.1.15,2013-02-25 21:33:00,
2013-02-25 13:39:00,45.3,40.1,30.39,WSW,240,3.0,22.0,82,0.00,,,0.25,Wunderground v.1.15,2013-02-25 21:39:00,
2013-02-25 13:44:00,45.6,40.4,30.39,NW,312,4.0,22.0,82,0.00,,,0.25,Wunderground v.1.15,2013-02-25 21:44:00,
2013-02-25 13:50:00,45.2,39.7,30.39,NW,315,7.0,22.0,81,0.00,,,0.25,Wunderground v.1.15,2013-02-25 21:50:00,
2013-02-25 13:56:00,45.3,39.5,30.39,NW,311,8.0,22.0,80,0.00,,,0.25,Wunderground v.1.15,2013-02-25 21:56:00,
2013-02-25 14:02:00,45.1,39.0,30.39,NW,320,8.0,22.0,79,0.00,,,0.25,Wunderground v.1.15,2013-02-25 22:02:00,
2013-02-25 14:08:00,45.3,39.5,30.38,NW,311,7.0,22.0,80,0.00,,,0.25,Wunderground v.1.15,2013-02-25 22:08:00,
2013-02-25 14:14:00,45.5,39.4,30.38,WNW,303,6.0,22.0,79,0.00,,,0.25,Wunderground v.1.15,2013-02-25 22:14:00,
2013-02-25 14:20:00,45.4,39.9,30.38,West,270,5.0,22.0,81,0.00,,,0.25,Wunderground v.1.15,2013-02-25 22:20:00,
2013-02-25 14:26:00,45.5,40.3,30.37,West,270,5.0,22.0,82,0.00,,,0.25,Wunderground v.1.15,2013-02-25 22:26:00,
2013-02-25 14:32:00,45.6,40.4,30.38,West,277,4.0,22.0,82,0.00,,,0.25,Wunderground v.1.15,2013-02-25 22:32:00,
2013-02-25 14:37:00,45.8,40.6,30.38,NW,304,4.0,22.0,82,0.00,,,0.25,Wunderground v.1.15,2013-02-25 22:37:00,
2013-02-25 14:42:00,45.7,40.5,30.38,WNW,286,4.0,22.0,82,0.00,,,0.25,Wunderground v.1.15,2013-02-25 22:42:00,
2013-02-25 14:48:00,46.1,40.9,30.38,NW,306,5.0,22.0,82,0.00,,,0.25,Wunderground v.1.15,2013-02-25 22:48:00,
2013-02-25 14:53:00,46.2,40.7,30.38,NW,321,6.0,22.0,81,0.00,,,0.25,Wunderground v.1.15,2013-02-25 22:53:00,
2013-02-25 14:58:00,45.2,39.7,30.37,NW,319,9.0,22.0,81,0.00,,,0.25,Wunderground v.1.15,2013-02-25 22:58:00,
2013-02-25 15:04:00,44.5,38.7,30.38,NW,320,9.0,22.0,80,0.00,,,0.25,Wunderground v.1.15,2013-02-25 23:04:00,
2013-02-25 15:09:00,44.4,38.9,30.38,NW,321,8.0,8.0,81,0.00,,,0.25,Wunderground v.1.15,2013-02-25 23:09:00,
2013-02-25 15:15:00,44.4,38.3,30.38,NW,310,7.0,22.0,79,0.00,,,0.25,Wunderground v.1.15,2013-02-25 23:15:00,
2013-02-25 15:21:00,44.5,38.4,30.38,NW,309,6.0,22.0,79,0.00,,,0.25,Wunderground v.1.15,2013-02-25 23:21:00,
2013-02-25 15:27:00,44.5,38.1,30.38,NW,304,7.0,22.0,78,0.00,,,0.25,Wunderground v.1.15,2013-02-25 23:27:00,
2013-02-25 15:33:00,44.5,38.4,30.38,WNW,284,6.0,22.0,79,0.00,,,0.25,Wunderground v.1.15,2013-02-25 23:33:00,
2013-02-25 15:38:00,44.4,38.3,30.38,WSW,257,4.0,22.0,79,0.00,,,0.25,Wunderground v.1.15,2013-02-25 23:38:00,
2013-02-25 15:44:00,44.5,37.7,30.38,West,273,4.0,22.0,77,0.00,,,0.25,Wunderground v.1.15,2013-02-25 23:44:00,
2013-02-25 15:49:00,45.2,38.4,30.38,WNW,283,4.0,22.0,77,0.00,,,0.25,Wunderground v.1.15,2013-02-25 23:49:00,
2013-02-25 15:54:00,45.4,38.3,30.38,WNW,283,4.0,22.0,76,0.00,,,0.25,Wunderground v.1.15,2013-02-25 23:54:00,
2013-02-25 16:00:00,46.1,39.0,30.38,WNW,283,3.0,3.0,76,0.00,,,0.25,Wunderground v.1.15,2013-02-26 00:00:00,
2013-02-25 16:05:00,46.2,38.7,30.38,WNW,291,3.0,22.0,75,0.00,,,0.25,Wunderground v.1.15,2013-02-26 00:05:00,
2013-02-25 16:11:00,46.1,39.0,30.38,WNW,294,4.0,22.0,76,0.00,,,0.25,Wunderground v.1.15,2013-02-26 00:11:00,
2013-02-25 16:17:00,46.0,38.9,30.38,WNW,297,4.0,22.0,76,0.00,,,0.25,Wunderground v.1.15,2013-02-26 00:17:00,
2013-02-25 16:23:00,45.6,38.8,30.38,WNW,297,4.0,22.0,77,0.00,,,0.25,Wunderground v.1.15,2013-02-26 00:23:00,
2013-02-25 16:28:00,45.5,38.7,30.37,WNW,297,3.0,22.0,77,0.00,,,0.25,Wunderground v.1.15,2013-02-26 00:28:00,
2013-02-25 16:34:00,45.7,39.6,30.37,WNW,297,3.0,22.0,79,0.00,,,0.25,Wunderground v.1.15,2013-02-26 00:34:00,
2013-02-25 16:39:00,45.7,39.2,30.37,WNW,297,2.0,22.0,78,0.00,,,0.25,Wunderground v.1.15,2013-02-26 00:39:00,
2013-02-25 16:44:00,45.7,39.6,30.37,WNW,297,2.0,22.0,79,0.00,,,0.25,Wunderground v.1.15,2013-02-26 00:44:00,
2013-02-25 16:50:00,45.3,38.8,30.37,WNW,297,2.0,2.0,78,0.00,,,0.25,Wunderground v.1.15,2013-02-26 00:50:00,
2013-02-25 16:56:00,45.2,38.7,30.37,WNW,297,1.0,22.0,78,0.00,,,0.25,Wunderground v.1.15,2013-02-26 00:56:00,
2013-02-25 17:02:00,45.3,38.8,30.37,WNW,297,1.0,22.0,78,0.00,,,0.25,Wunderground v.1.15,2013-02-26 01:02:00,
2013-02-25 17:07:00,45.3,38.8,30.37,WNW,297,2.0,22.0,78,0.00,,,0.25,Wunderground v.1.15,2013-02-26 01:07:00,
2013-02-25 17:13:00,45.3,39.2,30.37,WNW,297,2.0,22.0,79,0.00,,,0.25,Wunderground v.1.15,2013-02-26 01:13:00,
2013-02-25 17:18:00,45.2,38.7,30.38,WNW,297,1.0,22.0,78,0.00,,,0.25,Wunderground v.1.15,2013-02-26 01:18:00,
2013-02-25 17:24:00,45.2,39.1,30.38,WNW,297,1.0,22.0,79,0.00,,,0.25,Wunderground v.1.15,2013-02-26 01:24:00,
2013-02-25 17:29:00,45.1,39.0,30.38,WNW,297,2.0,22.0,79,0.00,,,0.25,Wunderground v.1.15,2013-02-26 01:29:00,
2013-02-25 17:34:00,44.7,38.6,30.38,WNW,297,2.0,22.0,79,0.00,,,0.25,Wunderground v.1.15,2013-02-26 01:34:00,
2013-02-25 17:40:00,44.5,38.4,30.38,WNW,297,2.0,2.0,79,0.00,,,0.25,Wunderground v.1.15,2013-02-26 01:40:00,
2013-02-25 17:45:00,44.4,38.6,30.38,WNW,297,1.0,22.0,80,0.00,,,0.25,Wunderground v.1.15,2013-02-26 01:45:00,
2013-02-25 17:51:00,44.2,38.4,30.38,WNW,297,1.0,22.0,80,0.00,,,0.25,Wunderground v.1.15,2013-02-26 01:51:00,
2013-02-25 17:57:00,44.2,38.7,30.38,WNW,297,2.0,22.0,81,0.00,,,0.25,Wunderground v.1.15,2013-02-26 01:57:00,
2013-02-25 18:02:00,44.1,38.6,30.38,WNW,297,2.0,22.0,81,0.00,,,0.25,Wunderground v.1.15,2013-02-26 02:02:00,
2013-02-25 18:08:00,44.0,38.5,30.38,WNW,297,2.0,22.0,81,0.00,,,0.25,Wunderground v.1.15,2013-02-26 02:08:00,
2013-02-25 18:13:00,44.0,38.9,30.38,WNW,297,2.0,22.0,82,0.00,,,0.25,Wunderground v.1.15,2013-02-26 02:13:00,
2013-02-25 18:18:00,44.1,39.0,30.38,WNW,297,2.0,22.0,82,0.00,,,0.25,Wunderground v.1.15,2013-02-26 02:18:00,
2013-02-25 18:24:00,44.1,38.6,30.39,NW,322,4.0,22.0,81,0.00,,,0.25,Wunderground v.1.15,2013-02-26 02:24:00,
2013-02-25 18:29:00,44.1,38.3,30.39,NW,318,6.0,22.0,80,0.00,,,0.25,Wunderground v.1.15,2013-02-26 02:29:00,
2013-02-25 18:35:00,43.9,38.1,30.39,NNE,26,7.0,22.0,80,0.00,,,0.25,Wunderground v.1.15,2013-02-26 02:35:00,
2013-02-25 18:41:00,43.5,38.1,30.39,NNE,24,3.0,22.0,81,0.00,,,0.25,Wunderground v.1.15,2013-02-26 02:41:00,
2013-02-25 18:47:00,43.3,37.9,30.38,North,11,2.0,22.0,81,0.00,,,0.25,Wunderground v.1.15,2013-02-26 02:47:00,
2013-02-25 18:52:00,43.3,37.9,30.39,North,11,2.0,22.0,81,0.00,,,0.25,Wunderground v.1.15,2013-02-26 02:52:00,
2013-02-25 18:58:00,43.0,37.9,30.39,North,5,2.0,22.0,82,0.00,,,0.25,Wunderground v.1.15,2013-02-26 02:58:00,
2013-02-25 19:04:00,43.5,38.4,30.40,North,5,4.0,22.0,82,0.00,,,0.25,Wunderground v.1.15,2013-02-26 03:04:00,
2013-02-25 19:10:00,43.8,38.3,30.40,North,350,5.0,22.0,81,0.00,,,0.25,Wunderground v.1.15,2013-02-26 03:10:00,
2013-02-25 19:15:00,43.9,37.8,30.39,NNW,338,5.0,22.0,79,0.00,,,0.25,Wunderground v.1.15,2013-02-26 03:15:00,
2013-02-25 19:21:00,43.8,37.4,30.39,NNW,341,4.0,22.0,78,0.00,,,0.25,Wunderground v.1.15,2013-02-26 03:21:00,
2013-02-25 19:26:00,43.9,37.5,30.39,NNW,334,4.0,22.0,78,0.00,,,0.25,Wunderground v.1.15,2013-02-26 03:26:00,
2013-02-25 19:32:00,43.9,37.5,30.40,NNW,331,4.0,22.0,78,0.00,,,0.25,Wunderground v.1.15,2013-02-26 03:32:00,
2013-02-25 19:38:00,43.9,37.5,30.40,NNW,328,5.0,22.0,78,0.00,,,0.25,Wunderground v.1.15,2013-02-26 03:38:00,
2013-02-25 19:43:00,43.9,37.5,30.40,NNW,331,5.0,22.0,78,0.00,,,0.25,Wunderground v.1.15,2013-02-26 03:43:00,
2013-02-25 19:49:00,43.8,37.7,30.40,NNW,329,4.0,22.0,79,0.00,,,0.25,Wunderground v.1.15,2013-02-26 03:49:00,
2013-02-25 19:55:00,43.8,37.4,30.40,NNW,330,4.0,22.0,78,0.00,,,0.25,Wunderground v.1.15,2013-02-26 03:55:00,
2013-02-25 20:01:00,44.0,37.9,30.39,NNW,330,3.0,22.0,79,0.00,,,0.25,Wunderground v.1.15,2013-02-26 04:01:00,
2013-02-25 20:06:00,44.0,37.9,30.40,NNW,344,3.0,22.0,79,0.00,,,0.25,Wunderground v.1.15,2013-02-26 04:06:00,
2013-02-25 20:12:00,43.6,37.2,30.40,NE,55,4.0,22.0,78,0.00,,,0.25,Wunderground v.1.15,2013-02-26 04:12:00,
2013-02-25 20:18:00,42.9,37.2,30.39,ENE,66,4.0,22.0,80,0.00,,,0.26,Wunderground v.1.15,2013-02-26 04:18:00,
2013-02-25 20:23:00,42.5,37.1,30.39,ENE,66,3.0,22.0,81,0.00,,,0.26,Wunderground v.1.15,2013-02-26 04:23:00,
2013-02-25 20:29:00,42.3,37.2,30.40,ENE,66,3.0,22.0,82,0.00,,,0.26,Wunderground v.1.15,2013-02-26 04:29:00,
2013-02-25 20:35:00,42.0,36.9,30.39,ENE,66,1.0,22.0,82,0.00,,,0.26,Wunderground v.1.15,2013-02-26 04:35:00,
2013-02-25 20:41:00,41.6,36.5,30.39,ENE,66,0.0,22.0,82,0.00,,,0.26,Wunderground v.1.15,2013-02-26 04:41:00,
2013-02-25 20:47:00,41.2,36.4,30.39,ENE,66,0.0,22.0,83,0.00,,,0.26,Wunderground v.1.15,2013-02-26 04:47:00,
2013-02-25 20:53:00,40.7,35.9,30.40,ENE,66,0.0,22.0,83,0.00,,,0.26,Wunderground v.1.15,2013-02-26 04:53:00,
2013-02-25 20:59:00,40.4,35.9,30.40,ENE,66,0.0,22.0,84,0.00,,,0.26,Wunderground v.1.15,2013-02-26 04:59:00,
2013-02-25 21:00:00,40.3,35.8,30.40,ENE,66,0.0,22.0,84,0.00,,,0.26,Wunderground v.1.15,2013-02-26 05:00:00,
2013-02-25 21:02:00,40.2,36.1,30.40,ENE,66,0.0,22.0,85,0.00,,,0.26,Wunderground v.1.15,2013-02-26 05:02:00,
2013-02-25 21:03:00,40.2,36.1,30.40,ENE,66,0.0,22.0,85,0.00,,,0.26,Wunderground v.1.15,2013-02-26 05:03:00,
2013-02-25 21:08:00,39.9,35.8,30.40,ENE,66,0.0,22.0,85,0.00,,,0.26,Wunderground v.1.15,2013-02-26 05:08:00,
2013-02-25 21:13:00,39.6,35.8,30.41,ENE,66,0.0,22.0,86,0.00,,,0.26,Wunderground v.1.15,2013-02-26 05:13:00,
2013-02-25 21:19:00,39.4,35.6,30.41,ENE,66,0.0,22.0,86,0.00,,,0.26,Wunderground v.1.15,2013-02-26 05:19:00,
2013-02-25 21:25:00,39.1,35.6,30.41,ENE,66,0.0,22.0,87,0.00,,,0.26,Wunderground v.1.15,2013-02-26 05:25:00,
2013-02-25 21:31:00,39.1,35.8,30.41,ENE,66,1.0,22.0,88,0.00,,,0.26,Wunderground v.1.15,2013-02-26 05:31:00,
2013-02-25 21:36:00,38.9,35.6,30.41,ENE,66,1.0,22.0,88,0.00,,,0.26,Wunderground v.1.15,2013-02-26 05:36:00,
2013-02-25 21:41:00,38.9,35.9,30.41,ENE,66,0.0,22.0,89,0.00,,,0.26,Wunderground v.1.15,2013-02-26 05:41:00,
2013-02-25 21:47:00,39.2,36.2,30.41,ENE,66,0.0,22.0,89,0.00,,,0.26,Wunderground v.1.15,2013-02-26 05:47:00,
2013-02-25 21:53:00,38.5,35.3,30.41,ENE,66,0.0,22.0,88,0.00,,,0.26,Wunderground v.1.15,2013-02-26 05:53:00,
2013-02-25 21:58:00,37.7,34.5,30.41,ENE,66,1.0,22.0,88,0.00,,,0.26,Wunderground v.1.15,2013-02-26 05:58:00,
2013-02-25 22:03:00,37.3,34.4,30.41,ENE,66,1.0,22.0,89,0.00,,,0.26,Wunderground v.1.15,2013-02-26 06:03:00,
2013-02-25 22:08:00,37.0,34.3,30.41,ENE,66,1.0,22.0,90,0.00,,,0.26,Wunderground v.1.15,2013-02-26 06:08:00,
2013-02-25 22:14:00,36.8,34.1,30.41,ENE,66,1.0,22.0,90,0.00,,,0.26,Wunderground v.1.15,2013-02-26 06:14:00,
2013-02-25 22:20:00,36.6,33.9,30.41,ENE,66,0.0,22.0,90,0.00,,,0.26,Wunderground v.1.15,2013-02-26 06:20:00,
2013-02-25 22:25:00,36.4,34.0,30.41,ENE,66,0.0,22.0,91,0.00,,,0.26,Wunderground v.1.15,2013-02-26 06:25:00,
2013-02-25 22:31:00,36.2,33.8,30.41,ENE,66,1.0,22.0,91,0.00,,,0.26,Wunderground v.1.15,2013-02-26 06:31:00,
2013-02-25 22:36:00,36.0,33.6,30.41,ENE,66,1.0,22.0,91,0.00,,,0.26,Wunderground v.1.15,2013-02-26 06:36:00,
2013-02-25 22:42:00,35.8,33.4,30.41,ENE,66,1.0,22.0,91,0.00,,,0.26,Wunderground v.1.15,2013-02-26 06:42:00,
2013-02-25 22:48:00,35.6,33.2,30.41,ENE,66,0.0,22.0,91,0.00,,,0.26,Wunderground v.1.15,2013-02-26 06:48:00,
2013-02-25 22:53:00,35.5,33.4,30.41,ENE,66,0.0,22.0,92,0.00,,,0.26,Wunderground v.1.15,2013-02-26 06:53:00,
2013-02-25 22:59:00,35.3,33.2,30.40,ENE,66,1.0,22.0,92,0.00,,,0.26,Wunderground v.1.15,2013-02-26 06:59:00,
2013-02-25 23:04:00,35.3,33.2,30.40,ENE,66,1.0,22.0,92,0.00,,,0.26,Wunderground v.1.15,2013-02-26 07:04:00,
2013-02-25 23:09:00,35.3,33.2,30.40,ENE,66,1.0,22.0,92,0.00,,,0.26,Wunderground v.1.15,2013-02-26 07:09:00,
2013-02-25 23:15:00,35.2,33.1,30.40,ENE,66,0.0,22.0,92,0.00,,,0.26,Wunderground v.1.15,2013-02-26 07:15:00,
2013-02-25 23:21:00,35.1,33.0,30.40,ENE,66,0.0,22.0,92,0.00,,,0.26,Wunderground v.1.15,2013-02-26 07:21:00,
2013-02-25 23:27:00,35.0,32.9,30.40,ENE,66,1.0,22.0,92,0.00,,,0.26,Wunderground v.1.15,2013-02-26 07:27:00,
2013-02-25 23:32:00,35.0,33.2,30.40,ENE,69,1.0,22.0,93,0.00,,,0.26,Wunderground v.1.15,2013-02-26 07:32:00,
2013-02-25 23:37:00,35.1,33.3,30.40,ENE,72,1.0,22.0,93,0.00,,,0.26,Wunderground v.1.15,2013-02-26 07:37:00,
2013-02-25 23:43:00,35.2,33.4,30.40,East,81,1.0,22.0,93,0.00,,,0.26,Wunderground v.1.15,2013-02-26 07:43:00,
2013-02-25 23:48:00,35.3,33.5,30.40,East,81,2.0,22.0,93,0.00,,,0.26,Wunderground v.1.15,2013-02-26 07:48:00,
2013-02-25 23:54:00,35.4,33.6,30.40,East,81,1.0,22.0,93,0.00,,,0.26,Wunderground v.1.15,2013-02-26 07:54:00,
2013-02-25 23:59:00,35.3,33.5,30.40,East,81,1.0,22.0,93,0.00,,,0.26,Wunderground v.1.15,2013-02-26 07:59:00,